Regional Weather Roundup
Issued by NWS

Home | Current Version | Previous Version | Text Only | Print | Product List | Glossary On
Versions: 1 2 3 4 5 6 7 8 9 10 11 12 13 14 15 16 17 18 19 20 21 22 23 24 25 26 27 28 29 30 31 32 33 34 35 36 37 38 39 40 41 42 43 44 45 46 47 48 49 50
000
ASUS43 KLSX 202059
RWRMO

WEATHER SUMMARY FOR MISSOURI
NATIONAL WEATHER SERVICE SPRINGFIELD MO
400 PM CDT SUN APR 20 2014

NOTE: "FAIR" INDICATES FEW OR NO CLOUDS BELOW 12,000 FEET WITH NO
       SIGNIFICANT WEATHER AND/OR OBSTRUCTIONS TO VISIBILITY.
       CURRENT SKY AND/OR WEATHER CONDITIONS ARE NOT AVAILABLE FOR
       CHILLICOTHE AND FARMINGTON.

MOZ001>031-035>038-043-044-053-054-202200-
...NORTHERN AND WESTERN MISSOURI...

CITY           SKY/WX    TMP DP  RH WIND       PRES   REMARKS
KANSAS CTY INT CLOUDY    74  52  46 S14       30.03F
KANSAS C DTWN  CLOUDY    77  53  43 S13       30.03F
LEE`S SUMMIT   PTSUNNY   75  51  43 SW9       30.05F
ST JOSEPH      PTSUNNY   78  53  41 S13G23    30.00F
CHILLICOTHE      N/A     78  50  37 S13G22    30.03F
KIRKSVILLE     MOSUNNY   81  49  32 SW13G20   30.05F

$$
MOZ066>068-077>081-088>096-101>105-202200-
...SOUTHWEST MISSOURI...

CITY           SKY/WX    TMP DP  RH WIND       PRES   REMARKS
SPRINGFIELD    CLOUDY    74  50  42 SW7       30.09F
JOPLIN         CLOUDY    73  53  49 SW7       30.09F

$$
MOZ032>034-039>042-045>050-055>058-069>072-202200-
...CENTRAL MISSOURI...

CITY           SKY/WX    TMP DP  RH WIND       PRES   REMARKS
COLUMBIA       PTSUNNY   78  50  37 SW7       30.06F
JEFFERSON CITY MOSUNNY   80  47  31 SW10G20   30.05F
ROLLA          MOSUNNY   79  48  33 S12G22    30.07F
SEDALIA        PTSUNNY   79  50  36 SW14G23   30.07F
OSAGE BEACH    CLOUDY    79  46  31 S12G17    30.09F

$$
MOZ051-052-059>065-202200-
...EAST CENTRAL MISSOURI...

CITY           SKY/WX    TMP DP  RH WIND       PRES   REMARKS
ST LOUIS INTL  PTSUNNY   82  38  20 S8G18     30.08F
SPIRIT OF STL  MOSUNNY   81  38  21 S6        30.06F
ST CHARLES     SUNNY     81  43  26 S13       30.06F

$$
MOZ072>076-082>087-097>100-106>115-202200-
...SOUTH CENTRAL AND SOUTHEAST MISSOURI...

CITY           SKY/WX    TMP DP  RH WIND       PRES   REMARKS
CAPE GIRARDEAU PTSUNNY   77  45  32 S10       30.11F
FARMINGTON     PTSUNNY   79  45  29 S9        30.12F
POPLAR BLUFF   SUNNY     79  43  27 SE9       30.09F
WEST PLAINS    MOSUNNY   75  47  36 S6        30.12F

$$



USA.gov is the U.S. government's official web portal to all federal, state and local government web resources and services.